GW1000 Weather Reports


Display with metric or nautical units.
time (UTC)temp
F
wind
direction
speed
MPH
gust
MPH
rain 1hr
in
rain 24hr
in
rain mn
in
humidity
%
barometer
mb
20260505030228 56 84 0.0 1.0 0.00 0.00 0.00 70 1010.2
20260505025724 56 93 1.0 1.0 0.00 0.00 0.00 70 1010.1
20260505025223 56 183 0.0 0.0 0.00 0.00 0.00 70 1010.2
20260505024721 56 183 0.0 1.0 0.00 0.00 0.00 70 1010.1
20260505024218 56 184 1.0 1.0 0.00 0.00 0.00 70 1010.1
20260505023715 56 181 1.0 1.0 0.00 0.00 0.00 70 1010.3
20260505023212 55 174 1.0 1.0 0.00 0.00 0.00 70 1010.2
20260505022710 56 204 0.0 1.0 0.00 0.00 0.00 69 1010.3
20260505022206 56 203 0.0 0.0 0.00 0.00 0.00 69 1010.4
20260505021703 56 203 0.0 1.0 0.00 0.00 0.00 68 1010.2
20260505021200 56 239 1.0 1.0 0.00 0.00 0.00 68 1010.3
20260505020655 56 256 1.0 2.0 0.00 0.00 0.00 67 1010.2
20260505020151 57 167 1.0 2.0 0.00 0.00 0.00 67 1010.3
20260505015648 57 175 0.0 2.0 0.00 0.00 0.00 66 1010.3
20260505015145 57 228 1.0 2.0 0.00 0.00 0.00 66 1010.3
20260505014642 57 218 2.0 2.0 0.00 0.00 0.00 66 1010.3
20260505014139 57 192 1.0 1.0 0.00 0.00 0.00 66 1010.3
20260505013637 57 200 1.0 1.0 0.00 0.00 0.00 65 1010.2
20260505013133 58 174 1.0 2.0 0.00 0.00 0.00 64 1010.6
20260505012631 58 219 1.0 3.0 0.00 0.00 0.00 64 1010.1
20260505012128 58 216 2.0 3.0 0.00 0.00 0.00 64 1010.4
20260505011623 58 187 1.0 3.0 0.00 0.00 0.00 63 1010.3
20260505011121 58 176 2.0 3.0 0.00 0.00 0.00 64 1010.3
20260505010616 58 198 2.0 3.0 0.00 0.00 0.00 64 1010.3
20260505010113 58 175 1.0 2.0 0.00 0.00 0.00 66 1010.5
20260505005609 57 213 1.0 2.0 0.00 0.00 0.00 66 1010.5
20260505005101 58 250 1.0 1.0 0.00 0.00 0.00 66 1010.6
20260505004558 58 251 1.0 1.0 0.00 0.00 0.00 65 1010.3
20260505004055 58 220 1.0 2.0 0.00 0.00 0.00 65 1010.4
20260505003552 58 213 1.0 2.0 0.00 0.00 0.00 65 1010.5
20260505003050 58 230 2.0 2.0 0.00 0.00 0.00 65 1010.5
20260505002549 58 205 0.0 1.0 0.00 0.00 0.00 65 1010.4
20260505002043 58 184 1.0 2.0 0.00 0.00 0.00 65 1010.5
20260505001540 59 350 0.0 1.0 0.00 0.00 0.00 64 1010.6
20260505001037 59 326 1.0 2.0 0.00 0.00 0.00 64 1010.8
20260505000535 59 227 1.0 2.0 0.00 0.00 0.00 64 1010.7
20260505000032 59 290 3.0 5.0 0.00 0.00 0.00 64 1010.7
20260504235529 59 258 3.0 5.0 0.00 0.00 0.00 64 1011.0
20260504235026 59 323 1.0 3.0 0.00 0.00 0.00 65 1010.5
20260504234523 59 301 3.0 3.0 0.00 0.00 0.00 65 1010.9
20260504234020 59 298 1.0 5.0 0.00 0.00 0.00 64 1010.8
20260504233515 59 327 4.0 6.0 0.00 0.00 0.00 64 1010.7
20260504233012 60 209 2.0 3.0 0.00 0.00 0.00 64 1010.9
20260504232509 60 249 3.0 5.0 0.00 0.00 0.00 64 1011.0
20260504232007 60 301 3.0 3.0 0.00 0.00 0.00 64 1011.0
20260504231503 60 329 2.0 5.0 0.00 0.00 0.00 63 1011.1
20260504230959 60 291 4.0 8.0 0.00 0.00 0.00 63 1011.1
20260504230455 61 257 4.0 7.0 0.00 0.00 0.00 62 1011.1
20260504225955 61 251 5.0 6.0 0.00 0.00 0.00 62 1011.2
20260504225451 61 256 5.0 7.0 0.00 0.00 0.00 61 1011.3
20260504224948 61 302 3.0 6.0 0.00 0.00 0.00 60 1011.4
20260504224444 60 282 4.0 5.0 0.00 0.00 0.00 60 1011.6
20260504223942 60 275 4.0 5.0 0.00 0.00 0.00 60 1011.5
20260504223438 60 278 4.0 7.0 0.00 0.00 0.00 61 1011.5
20260504222933 60 272 4.0 5.0 0.00 0.00 0.00 61 1011.7
20260504222431 60 257 3.0 6.0 0.00 0.00 0.00 60 1011.8
20260504221929 60 281 4.0 7.0 0.00 0.00 0.00 60 1011.8
20260504221425 61 253 2.0 3.0 0.00 0.00 0.00 60 1011.9
20260504220923 61 274 5.0 6.0 0.00 0.00 0.00 60 1012.0
20260504220419 61 316 6.0 8.0 0.00 0.00 0.00 59 1011.8
20260504215916 61 262 4.0 8.0 0.00 0.00 0.00 60 1012.0
20260504215413 61 353 5.0 8.0 0.00 0.00 0.00 61 1012.1
20260504214909 61 252 6.0 10.0 0.00 0.00 0.00 62 1011.8
20260504214406 61 325 7.0 10.0 0.00 0.00 0.00 63 1012.0
20260504213903 61 248 9.0 14.0 0.00 0.00 0.00 64 1012.0
20260504213359 61 181 2.0 9.0 0.00 0.00 0.00 64 1012.1
20260504212856 61 242 5.0 9.0 0.00 0.00 0.00 64 1012.2
20260504212352 61 268 3.0 5.0 0.00 0.00 0.00 63 1012.2
20260504211850 61 283 6.0 11.0 0.00 0.00 0.00 63 1012.0
20260504211346 60 233 2.0 5.0 0.00 0.00 0.00 63 1012.4
20260504210843 60 345 3.0 7.0 0.00 0.00 0.00 62 1012.2
20260504210340 60 243 3.0 7.0 0.00 0.00 0.00 62 1012.3
20260504205837 60 284 4.0 8.0 0.00 0.00 0.00 63 1012.2
20260504205335 60 240 4.0 6.0 0.00 0.00 0.00 65 1012.3
20260504204833 60 294 2.0 7.0 0.00 0.00 0.00 66 1012.2
20260504204331 60 262 3.0 5.0 0.00 0.00 0.00 67 1012.2
20260504203830 60 239 3.0 5.0 0.00 0.00 0.00 67 1012.2
20260504203327 60 267 4.0 6.0 0.00 0.00 0.00 68 1012.4
20260504202822 60 283 4.0 8.0 0.00 0.00 0.00 68 1012.4
20260504202320 60 354 1.0 7.0 0.00 0.00 0.00 68 1012.2
20260504201817 60 301 2.0 6.0 0.00 0.00 0.00 68 1012.4
20260504201314 60 353 2.0 5.0 0.00 0.00 0.00 69 1012.1
20260504200811 60 271 3.0 3.0 0.00 0.00 0.00 69 1012.5
20260504200308 60 314 2.0 5.0 0.00 0.00 0.00 69 1012.4
20260504195804 60 295 3.0 8.0 0.00 0.00 0.00 68 1012.3
20260504195300 60 267 3.0 5.0 0.00 0.00 0.00 68 1012.3
20260504194757 61 258 5.0 7.0 0.00 0.00 0.00 68 1012.5
20260504194253 61 280 5.0 7.0 0.00 0.00 0.00 68 1012.5
20260504193749 61 318 7.0 9.0 0.00 0.00 0.00 68 1012.5
20260504193247 61 247 3.0 6.0 0.00 0.00 0.00 68 1012.6
20260504192745 61 254 8.0 13.0 0.00 0.00 0.00 67 1012.4
20260504192243 60 248 2.0 3.0 0.00 0.00 0.00 66 1012.4
20260504191741 60 268 3.0 3.0 0.00 0.00 0.00 66 1012.5
20260504191238 60 247 2.0 3.0 0.00 0.00 0.00 67 1012.6
20260504190733 60 191 1.0 2.0 0.00 0.00 0.00 66 1012.6
20260504190230 60 291 3.0 3.0 0.00 0.00 0.00 66 1012.5
20260504185726 60 251 3.0 5.0 0.00 0.00 0.00 66 1012.5
20260504185224 60 264 6.0 7.0 0.00 0.00 0.00 67 1012.4
20260504184719 61 306 5.0 6.0 0.00 0.00 0.00 67 1012.5
20260504184216 61 207 1.0 6.0 0.00 0.00 0.00 67 1012.3
20260504183711 61 298 7.0 8.0 0.00 0.00 0.00 68 1012.3
20260504183209 61 302 2.0 5.0 0.00 0.00 0.00 67 1012.4
20260504182707 61 307 6.0 7.0 0.00 0.00 0.00 67 1012.4
20260504182204 61 316 3.0 6.0 0.00 0.00 0.00 67 1012.3
20260504181701 61 332 5.0 7.0 0.00 0.00 0.00 67 1012.3
20260504181159 61 254 4.0 6.0 0.00 0.00 0.00 67 1012.1
20260504180657 61 259 2.0 5.0 0.00 0.00 0.00 66 1012.1
20260504180156 61 279 5.0 6.0 0.00 0.00 0.00 66 1012.1
20260504175653 61 273 4.0 7.0 0.00 0.00 0.00 67 1012.0
20260504175149 61 324 2.0 6.0 0.00 0.00 0.00 67 1011.9
20260504174647 61 268 5.0 8.0 0.00 0.00 0.00 66 1011.9
20260504174144 62 293 3.0 10.0 0.00 0.00 0.00 66 1011.8
20260504173641 61 258 3.0 9.0 0.00 0.00 0.00 65 1011.8
20260504173138 61 165 5.0 8.0 0.00 0.00 0.00 65 1012.0
20260504172635 61 288 3.0 8.0 0.00 0.00 0.00 66 1011.7
20260504172131 62 246 7.0 8.0 0.00 0.00 0.00 66 1011.7
20260504171628 62 285 6.0 8.0 0.00 0.00 0.00 66 1011.6
20260504171125 62 286 4.0 7.0 0.00 0.00 0.00 65 1011.7
20260504170621 62 288 7.0 10.0 0.00 0.00 0.00 65 1011.6
20260504170119 62 288 5.0 10.0 0.00 0.00 0.00 66 1011.5
20260504150958 64 274 11.0 16.0 0.00 0.00 0.00 60 1011.3
20260504150455 65 289 8.0 13.0 0.00 0.00 0.00 58 1011.1
20260504140922 66 230 12.0 17.0 0.00 0.00 0.00 60 1011.5
20260504140418 65 259 15.0 21.0 0.00 0.00 0.00 63 1011.5
20260504130343 65 249 13.0 18.0 0.00 0.00 0.00 63 1011.3
20260504120306 64 238 12.0 17.0 0.00 0.00 0.00 69 1011.6
20260504110230 65 262 15.0 26.0 0.00 0.00 0.00 63 1012.3
20260504100148 66 257 19.0 24.0 0.00 0.00 0.00 57 1012.1
20260504090111 66 238 11.0 20.0 0.00 0.00 0.00 56 1012.0
20260504081541 65 272 15.0 21.0 0.00 0.00 0.00 59 1012.0
20260504081037 66 172 8.0 25.0 0.00 0.00 0.00 58 1012.0
20260504080534 66 246 15.0 22.0 0.00 0.00 0.00 58 1012.1
20260504050346 62 284 7.0 10.0 0.00 0.00 0.00 62 1011.0
20260504045843 62 221 6.0 10.0 0.00 0.00 0.00 64 1011.2
20260504045338 62 225 8.0 11.0 0.00 0.00 0.00 64 1011.0
20260504044835 62 224 7.0 8.0 0.00 0.00 0.00 64 1010.9
20260504044333 62 199 3.0 7.0 0.00 0.00 0.00 65 1011.0
20260504043830 62 239 7.0 8.0 0.00 0.00 0.00 65 1010.9
20260504043327 61 183 1.0 11.0 0.00 0.00 0.00 66 1010.8
20260504042824 61 246 6.0 9.0 0.00 0.00 0.00 66 1010.5
20260504042320 60 175 6.0 8.0 0.00 0.00 0.00 66 1010.9
20260504041817 60 208 5.0 8.0 0.00 0.00 0.00 67 1010.9
20260504041313 60 197 6.0 8.0 0.00 0.00 0.00 67 1011.1
20260504040809 60 222 4.0 8.0 0.00 0.00 0.00 67 1010.9
20260504040307 60 239 6.0 9.0 0.00 0.00 0.00 67 1010.8
20260504035803 60 236 3.0 5.0 0.00 0.00 0.00 68 1010.7
20260504035300 60 213 2.0 5.0 0.00 0.00 0.00 68 1010.7
20260504034757 59 228 3.0 3.0 0.00 0.00 0.00 68 1010.7
20260504034255 59 271 1.0 3.0 0.00 0.00 0.00 68 1010.8
20260504033752 59 170 1.0 3.0 0.00 0.00 0.00 68 1010.6
20260504033249 59 258 4.0 5.0 0.00 0.00 0.00 67 1010.6
20260504032746 60 197 4.0 6.0 0.00 0.00 0.00 67 1010.6
20260504032243 60 240 5.0 7.0 0.00 0.00 0.00 67 1010.7
20260504031740 60 218 5.0 7.0 0.00 0.00 0.00 67 1010.4
20260504031238 59 243 5.0 6.0 0.00 0.00 0.00 68 1010.5
20260504030733 59 201 2.0 7.0 0.00 0.00 0.00 68 1010.5